GW0910 Weather Reports


time (UTC)temp
F
wind
direction
speed
knots
gust
knots
rain 1hr
in
rain 24hr
in
rain mn
in
humidity
%
barometer
mb
20260509075104 98 0.0 0.0 0.00 0.00 0.00 69 1007.9
20260509074601 98 0.0 0.0 0.00 0.00 0.00 69 1008.2
20260509074057 98 0.0 0.0 0.00 0.00 0.00 69 1008.2
20260509073554 98 0.0 0.0 0.00 0.00 0.00 69 1008.2
20260509073050 98 0.0 0.0 0.00 0.00 0.00 70 1008.2
20260509072547 97 0.0 0.0 0.00 0.00 0.00 70 1008.2
20260509072044 97 0.0 0.0 0.00 0.00 0.00 70 1008.2
20260509071541 97 0.0 0.0 0.00 0.00 0.00 70 1008.6
20260509071038 98 0.0 0.0 0.00 0.00 0.00 70 1008.6
20260509070535 97 0.0 0.0 0.00 0.00 0.00 71 1008.6
20260509070031 97 0.0 0.0 0.00 0.00 0.00 70 1008.6
20260509065527 97 0.0 0.0 0.00 0.00 0.00 70 1008.6
20260509065024 97 0.0 0.0 0.00 0.00 0.00 69 1008.6
20260509064521 97 0.0 0.0 0.00 0.00 0.00 69 1008.9
20260509064019 98 0.0 0.0 0.00 0.00 0.00 69 1008.6
20260509063514 98 0.0 0.0 0.00 0.00 0.00 68 1008.9
20260509063012 98 0.0 0.0 0.00 0.00 0.00 68 1008.9
20260509062509 98 0.0 0.0 0.00 0.00 0.00 69 1008.9
20260509062007 98 0.0 0.0 0.00 0.00 0.00 69 1008.9
20260509061504 98 0.0 0.0 0.00 0.00 0.00 68 1008.9
20260509061001 98 0.0 0.0 0.00 0.00 0.00 69 1008.9
20260509060458 97 0.0 0.0 0.00 0.00 0.00 69 1008.9
20260509055953 97 0.0 0.0 0.00 0.00 0.00 69 1009.2
20260509055449 97 0.0 0.0 0.00 0.00 0.00 69 1009.2
20260509054945 97 0.0 0.0 0.00 0.00 0.00 70 1008.9
20260509054442 97 0.0 0.0 0.00 0.00 0.00 70 1009.2
20260509053940 97 0.0 0.0 0.00 0.00 0.00 70 1009.6
20260509053438 96 0.0 0.0 0.00 0.00 0.00 70 1009.6
20260509052935 96 0.0 0.0 0.00 0.00 0.00 70 1009.6
20260509052433 96 0.0 0.0 0.00 0.00 0.00 70 1009.6
20260509051930 96 0.0 0.0 0.00 0.00 0.00 71 1009.6
20260509051428 96 0.0 0.0 0.00 0.00 0.00 71 1009.9
20260509050925 96 0.0 0.0 0.00 0.00 0.00 70 1009.9
20260509050421 96 0.0 0.0 0.00 0.00 0.00 71 1009.9
20260509045918 96 0.0 0.0 0.00 0.00 0.00 70 1009.9
20260509045415 96 0.0 0.0 0.00 0.00 0.00 71 1010.2
20260509044912 96 0.0 0.0 0.00 0.00 0.00 72 1010.2
20260509044410 95 0.0 0.0 0.00 0.00 0.00 72 1010.2
20260509043907 95 0.0 0.0 0.00 0.00 0.00 73 1010.6
20260509043402 94 0.0 0.0 0.00 0.00 0.00 73 1010.6
20260509042858 94 0.0 0.0 0.00 0.00 0.00 76 1010.9
20260509042355 93 0.0 0.0 0.00 0.00 0.00 78 1010.9
20260509041852 93 0.0 0.0 0.00 0.00 0.00 80 1010.9
20260509041349 93 0.0 0.0 0.00 0.00 0.00 80 1010.9
20260509040847 93 0.0 0.0 0.00 0.00 0.00 80 1011.3
20260509040345 93 0.0 0.0 0.00 0.00 0.00 77 1011.3
20260509035841 93 0.0 0.0 0.00 0.00 0.00 80 1011.3
20260509035338 92 0.0 0.0 0.00 0.00 0.00 81 1011.3
20260509034834 92 0.0 0.0 0.00 0.00 0.00 82 1011.3
20260509034332 92 0.0 0.0 0.00 0.00 0.00 83 1011.3
20260509033829 91 0.0 0.0 0.00 0.00 0.00 84 1011.3
20260509033326 91 0.0 0.0 0.00 0.00 0.00 84 1011.6
20260509032823 91 0.0 0.0 0.00 0.00 0.00 84 1011.6
20260509032320 91 0.0 0.0 0.00 0.00 0.00 85 1011.6
20260509031818 90 0.0 0.0 0.00 0.00 0.00 86 1011.6
20260509031315 90 0.0 0.0 0.00 0.00 0.00 86 1011.9
20260509030813 90 0.0 0.0 0.00 0.00 0.00 85 1011.6
20260509030310 90 0.0 0.0 0.00 0.00 0.00 83 1011.9
20260509025807 91 0.0 0.0 0.00 0.00 0.00 83 1011.9
20260509025306 90 0.0 0.0 0.00 0.00 0.00 84 1011.9
20260509024758 90 0.0 0.0 0.00 0.00 0.00 84 1011.9
20260509024255 90 0.0 0.0 0.00 0.00 0.00 86 1011.9
20260509023752 90 0.0 0.0 0.00 0.00 0.00 85 1011.9
20260509023249 89 0.0 0.0 0.00 0.00 0.00 85 1011.9
20260509022744 89 0.0 0.0 0.00 0.00 0.00 85 1012.3
20260509022242 90 0.0 0.0 0.00 0.00 0.00 85 1012.3
20260509021739 90 0.0 0.0 0.00 0.00 0.00 86 1012.3
20260509021236 89 0.0 0.0 0.00 0.00 0.00 86 1012.3
20260509020734 89 0.0 0.0 0.00 0.00 0.00 86 1012.6
20260509020232 89 0.0 0.0 0.00 0.00 0.00 86 1012.6
20260509015729 89 0.0 0.0 0.00 0.00 0.00 85 1012.6
20260509015228 90 0.0 0.0 0.00 0.00 0.00 85 1012.6
20260509014724 90 0.0 0.0 0.00 0.00 0.00 83 1012.6
20260509014221 91 0.0 0.0 0.00 0.00 0.00 82 1012.6
20260509013717 91 0.0 0.0 0.00 0.00 0.00 80 1012.6
20260509013213 91 0.0 0.0 0.00 0.00 0.00 80 1012.3
20260509012709 91 0.0 0.0 0.00 0.00 0.00 80 1012.6
20260509012206 91 0.0 0.0 0.00 0.00 0.00 78 1012.6
20260509011704 91 0.0 0.0 0.00 0.00 0.00 78 1012.3
20260509011201 91 0.0 0.0 0.00 0.00 0.00 78 1012.6
20260509010659 92 0.0 0.0 0.00 0.00 0.00 78 1012.6
20260509010155 91 0.0 0.0 0.00 0.00 0.00 78 1012.6
20260509005653 91 0.0 0.0 0.00 0.00 0.00 78 1012.6
20260509005149 91 0.0 0.0 0.00 0.00 0.00 78 1012.6
20260509004644 91 0.0 0.0 0.00 0.00 0.00 78 1012.6
20260509004142 91 0.0 0.0 0.00 0.00 0.00 78 1012.6
20260509003641 91 0.0 0.0 0.00 0.00 0.00 78 1013.0
20260509003138 91 0.0 0.0 0.00 0.00 0.00 78 1012.6
20260509002635 91 0.0 0.0 0.00 0.00 0.00 77 1012.6
20260509002132 91 0.0 0.0 0.00 0.00 0.00 79 1012.6
20260509001630 91 0.0 0.0 0.00 0.00 0.00 79 1012.6
20260509001125 91 0.0 0.0 0.00 0.00 0.00 79 1012.6
20260509000624 91 0.0 0.0 0.00 0.00 0.00 79 1012.6
20260509000120 91 0.0 0.0 0.00 0.00 0.00 80 1012.6
20260508235617 91 0.0 0.0 0.00 0.00 0.00 80 1012.6
20260508235114 91 0.0 0.0 0.00 0.00 0.00 80 1012.3
20260508234611 90 0.0 0.0 0.00 0.00 0.00 80 1012.3
20260508234107 91 0.0 0.0 0.00 0.00 0.00 79 1012.3
20260508233607 90 0.0 0.0 0.00 0.00 0.00 80 1012.3
20260508233104 90 0.0 0.0 0.00 0.00 0.00 81 1012.3
20260508232601 90 0.0 0.0 0.00 0.00 0.00 81 1011.9
20260508232057 90 0.0 0.0 0.00 0.00 0.00 81 1011.9
20260508231556 90 0.0 0.0 0.00 0.00 0.00 81 1011.9
20260508231052 90 0.0 0.0 0.00 0.00 0.00 81 1011.9
20260508230549 90 0.0 0.0 0.00 0.00 0.00 82 1011.9
20260508230045 89 0.0 0.0 0.00 0.00 0.00 82 1011.9
20260508225543 89 0.0 0.0 0.00 0.00 0.00 82 1011.9
20260508225039 89 0.0 0.0 0.00 0.00 0.00 82 1011.9
20260508224538 89 0.0 0.0 0.00 0.00 0.00 83 1011.6
20260508224034 89 0.0 0.0 0.00 0.00 0.00 83 1011.6
20260508223532 89 0.0 0.0 0.00 0.00 0.00 84 1011.6
20260508223029 89 0.0 0.0 0.00 0.00 0.00 84 1011.6
20260508222527 89 0.0 0.0 0.00 0.00 0.00 83 1011.3
20260508222023 89 0.0 0.0 0.00 0.00 0.00 83 1011.3
20260508221520 89 0.0 0.0 0.00 0.00 0.00 83 1011.3
20260508221015 89 0.0 0.0 0.00 0.00 0.00 83 1010.9
20260508220512 89 0.0 0.0 0.00 0.00 0.00 83 1011.3
20260508220009 89 0.0 0.0 0.00 0.00 0.00 83 1010.9
20260508215505 89 0.0 0.0 0.00 0.00 0.00 83 1010.9
20260508215002 89 0.0 0.0 0.00 0.00 0.00 83 1010.9
20260508214500 89 0.0 0.0 0.00 0.00 0.00 83 1010.9
20260508213955 89 0.0 0.0 0.00 0.00 0.00 83 1010.9
20260508213454 89 0.0 0.0 0.00 0.00 0.00 83 1010.6
20260508212948 89 0.0 0.0 0.00 0.00 0.00 83 1010.9
20260508212446 89 0.0 0.0 0.00 0.00 0.00 83 1010.9
20260508211941 89 0.0 0.0 0.00 0.00 0.00 83 1010.9
20260508211437 89 0.0 0.0 0.00 0.00 0.00 83 1010.9
20260508210934 89 0.0 0.0 0.00 0.00 0.00 83 1010.6
20260508210431 89 0.0 0.0 0.00 0.00 0.00 83 1010.6
20260508205927 89 0.0 0.0 0.00 0.00 0.00 82 1010.6
20260508205425 89 0.0 0.0 0.00 0.00 0.00 82 1010.6
20260508204921 89 0.0 0.0 0.00 0.00 0.00 82 1010.6
20260508204418 89 0.0 0.0 0.00 0.00 0.00 82 1010.6
20260508203913 89 0.0 0.0 0.00 0.00 0.00 82 1010.6
20260508203410 89 0.0 0.0 0.00 0.00 0.00 82 1010.6
20260508202906 89 0.0 0.0 0.00 0.00 0.00 82 1010.2
20260508202404 89 0.0 0.0 0.00 0.00 0.00 82 1010.2
20260508201900 89 0.0 0.0 0.00 0.00 0.00 82 1010.2
20260508201357 89 0.0 0.0 0.00 0.00 0.00 83 1010.2
20260508200853 89 0.0 0.0 0.00 0.00 0.00 82 1010.2
20260508200350 89 0.0 0.0 0.00 0.00 0.00 82 1010.2
20260508195846 89 0.0 0.0 0.00 0.00 0.00 82 1010.2
20260508195343 89 0.0 0.0 0.00 0.00 0.00 82 1010.2
20260508194839 89 0.0 0.0 0.00 0.00 0.00 82 1010.2
20260508194336 89 0.0 0.0 0.00 0.00 0.00 82 1010.2
20260508193833 89 0.0 0.0 0.00 0.00 0.00 82 1010.2
20260508193330 89 0.0 0.0 0.00 0.00 0.00 81 1010.2
20260508192827 89 0.0 0.0 0.00 0.00 0.00 81 1010.2
20260508192324 89 0.0 0.0 0.00 0.00 0.00 81 1010.2
20260508191821 89 0.0 0.0 0.00 0.00 0.00 81 1010.2
20260508191318 89 0.0 0.0 0.00 0.00 0.00 81 1010.2
20260508190815 90 0.0 0.0 0.00 0.00 0.00 81 1010.2
20260508190311 89 0.0 0.0 0.00 0.00 0.00 81 1010.2
20260508185807 89 0.0 0.0 0.00 0.00 0.00 81 1010.6
20260508185306 89 0.0 0.0 0.00 0.00 0.00 81 1010.2
20260508184802 89 0.0 0.0 0.00 0.00 0.00 81 1010.2
20260508184259 89 0.0 0.0 0.00 0.00 0.00 80 1010.2
20260508183756 89 0.0 0.0 0.00 0.00 0.00 80 1010.2
20260508183253 90 0.0 0.0 0.00 0.00 0.00 80 1010.2
20260508182749 90 0.0 0.0 0.00 0.00 0.00 80 1010.2
20260508182246 90 0.0 0.0 0.00 0.00 0.00 80 1010.6
20260508181741 90 0.0 0.0 0.00 0.00 0.00 80 1010.6
20260508181238 90 0.0 0.0 0.00 0.00 0.00 80 1010.6
20260508180735 90 0.0 0.0 0.00 0.00 0.00 80 1010.2
20260508180232 90 0.0 0.0 0.00 0.00 0.00 80 1010.6
20260508175728 90 0.0 0.0 0.00 0.00 0.00 80 1010.6
20260508175225 90 0.0 0.0 0.00 0.00 0.00 80 1010.6
20260508174723 90 0.0 0.0 0.00 0.00 0.00 80 1010.6
20260508174221 90 0.0 0.0 0.00 0.00 0.00 80 1010.6
20260508173716 90 0.0 0.0 0.00 0.00 0.00 80 1010.9
20260508173212 90 0.0 0.0 0.00 0.00 0.00 80 1010.9
20260508172710 90 0.0 0.0 0.00 0.00 0.00 80 1011.3
20260508172207 90 0.0 0.0 0.00 0.00 0.00 80 1010.9
20260508171703 90 0.0 0.0 0.00 0.00 0.00 80 1010.9
20260508171159 90 0.0 0.0 0.00 0.00 0.00 80 1011.3
20260508170656 90 0.0 0.0 0.00 0.00 0.00 80 1011.3
20260508170154 90 0.0 0.0 0.00 0.00 0.00 80 1010.9
20260508165651 90 0.0 0.0 0.00 0.00 0.00 80 1011.3
20260508165148 90 0.0 0.0 0.00 0.00 0.00 80 1011.3
20260508164644 90 0.0 0.0 0.00 0.00 0.00 80 1011.3
20260508164141 90 0.0 0.0 0.00 0.00 0.00 80 1010.9
20260508163639 90 0.0 0.0 0.00 0.00 0.00 80 1011.3
20260508163136 90 0.0 0.0 0.00 0.00 0.00 80 1011.3
20260508162631 90 0.0 0.0 0.00 0.00 0.00 80 1011.3
20260508162129 90 0.0 0.0 0.00 0.00 0.00 80 1011.3
20260508161626 90 0.0 0.0 0.00 0.00 0.00 80 1011.3
20260508161124 91 0.0 0.0 0.00 0.00 0.00 80 1011.6
20260508160622 91 0.0 0.0 0.00 0.00 0.00 80 1011.6
20260508160119 0 0.0 0.0 0.00 0.00 0.00 1011.6
20260508155616 91 0.0 0.0 0.00 0.00 0.00 80 1011.6
20260508155113 91 0.0 0.0 0.00 0.00 0.00 80 1011.6
20260508154609 91 0.0 0.0 0.00 0.00 0.00 80 1011.3
20260508154106 91 0.0 0.0 0.00 0.00 0.00 80 1011.6
20260508153603 91 0.0 0.0 0.00 0.00 0.00 80 1011.9
20260508153100 91 0.0 0.0 0.00 0.00 0.00 80 1011.9
20260508152557 91 0.0 0.0 0.00 0.00 0.00 80 1011.6
20260508152052 91 0.0 0.0 0.00 0.00 0.00 80 1011.9
20260508151549 91 0.0 0.0 0.00 0.00 0.00 80 1011.6
20260508151046 91 0.0 0.0 0.00 0.00 0.00 80 1011.9
20260508150543 91 0.0 0.0 0.00 0.00 0.00 80 1011.9
20260508150039 91 0.0 0.0 0.00 0.00 0.00 80 1011.9
20260508145536 91 0.0 0.0 0.00 0.00 0.00 81 1011.9
20260508145032 91 0.0 0.0 0.00 0.00 0.00 81 1011.6
20260508144530 91 0.0 0.0 0.00 0.00 0.00 82 1011.6
20260508144027 91 0.0 0.0 0.00 0.00 0.00 82 1011.9
20260508143525 91 0.0 0.0 0.00 0.00 0.00 81 1011.9
20260508143021 91 0.0 0.0 0.00 0.00 0.00 81 1011.9
20260508142518 91 0.0 0.0 0.00 0.00 0.00 81 1011.9
20260508142014 91 0.0 0.0 0.00 0.00 0.00 81 1012.3
20260508141511 91 0.0 0.0 0.00 0.00 0.00 81 1011.9
20260508141009 91 0.0 0.0 0.00 0.00 0.00 80 1011.9
20260508140506 91 0.0 0.0 0.00 0.00 0.00 81 1011.9
20260508140002 91 0.0 0.0 0.00 0.00 0.00 80 1011.9
20260508135458 91 0.0 0.0 0.00 0.00 0.00 80 1011.9
20260508134954 91 0.0 0.0 0.00 0.00 0.00 80 1011.9
20260508134451 91 0.0 0.0 0.00 0.00 0.00 80 1011.9
20260508133948 91 0.0 0.0 0.00 0.00 0.00 80 1011.9
20260508133445 91 0.0 0.0 0.00 0.00 0.00 80 1011.9
20260508132942 91 0.0 0.0 0.00 0.00 0.00 79 1011.9
20260508132440 91 0.0 0.0 0.00 0.00 0.00 79 1011.6
20260508131937 91 0.0 0.0 0.00 0.00 0.00 79 1011.6
20260508131432 92 0.0 0.0 0.00 0.00 0.00 79 1011.3
20260508130929 92 0.0 0.0 0.00 0.00 0.00 79 1011.3
20260508130426 92 0.0 0.0 0.00 0.00 0.00 79 1011.3
20260508125921 92 0.0 0.0 0.00 0.00 0.00 78 1011.3
20260508125418 92 0.0 0.0 0.00 0.00 0.00 78 1011.3
20260508124916 92 0.0 0.0 0.00 0.00 0.00 77 1011.3
20260508124413 92 0.0 0.0 0.00 0.00 0.00 77 1011.3
20260508123911 92 0.0 0.0 0.00 0.00 0.00 76 1011.3
20260508123409 92 0.0 0.0 0.00 0.00 0.00 78 1010.9
20260508122905 92 0.0 0.0 0.00 0.00 0.00 78 1010.9
20260508122403 92 0.0 0.0 0.00 0.00 0.00 77 1010.9
20260508121859 92 0.0 0.0 0.00 0.00 0.00 78 1010.9
20260508121358 92 0.0 0.0 0.00 0.00 0.00 77 1010.6
20260508120855 92 0.0 0.0 0.00 0.00 0.00 78 1010.6
20260508120353 92 0.0 0.0 0.00 0.00 0.00 78 1010.6
20260508115850 92 0.0 0.0 0.00 0.00 0.00 78 1010.6
20260508115347 92 0.0 0.0 0.00 0.00 0.00 78 1010.2
20260508114844 92 0.0 0.0 0.00 0.00 0.00 77 1010.2
20260508114341 92 0.0 0.0 0.00 0.00 0.00 77 1010.2
20260508113838 93 0.0 0.0 0.00 0.00 0.00 77 1009.9
20260508113336 93 0.0 0.0 0.00 0.00 0.00 77 1010.2
20260508112832 93 0.0 0.0 0.00 0.00 0.00 77 1010.2
20260508112329 93 0.0 0.0 0.00 0.00 0.00 76 1009.9
20260508111826 93 0.0 0.0 0.00 0.00 0.00 76 1009.9
20260508111323 93 0.0 0.0 0.00 0.00 0.00 75 1009.9
20260508110820 93 0.0 0.0 0.00 0.00 0.00 76 1009.9
20260508110318 93 0.0 0.0 0.00 0.00 0.00 76 1009.9
20260508105817 93 0.0 0.0 0.00 0.00 0.00 75 1009.9
20260508105314 93 0.0 0.0 0.00 0.00 0.00 75 1009.6
20260508104811 93 0.0 0.0 0.00 0.00 0.00 75 1009.6
20260508104308 93 0.0 0.0 0.00 0.00 0.00 76 1009.2
20260508103805 93 0.0 0.0 0.00 0.00 0.00 75 1009.6
20260508103302 93 0.0 0.0 0.00 0.00 0.00 75 1009.2
20260508102800 93 0.0 0.0 0.00 0.00 0.00 75 1009.2
20260508102257 93 0.0 0.0 0.00 0.00 0.00 75 1009.2
20260508101754 93 0.0 0.0 0.00 0.00 0.00 76 1009.6
20260508101252 94 0.0 0.0 0.00 0.00 0.00 75 1009.2
20260508100749 94 0.0 0.0 0.00 0.00 0.00 75 1009.2
20260508100247 94 0.0 0.0 0.00 0.00 0.00 75 1008.9
20260508095743 94 0.0 0.0 0.00 0.00 0.00 75 1008.9
20260508095241 94 0.0 0.0 0.00 0.00 0.00 75 1008.9
20260508094737 94 0.0 0.0 0.00 0.00 0.00 76 1008.6
20260508094235 94 0.0 0.0 0.00 0.00 0.00 75 1008.6
20260508093732 94 0.0 0.0 0.00 0.00 0.00 75 1008.6
20260508093229 94 0.0 0.0 0.00 0.00 0.00 75 1008.6
20260508092726 94 0.0 0.0 0.00 0.00 0.00 75 1008.6
20260508092224 95 0.0 0.0 0.00 0.00 0.00 75 1008.2
20260508091722 95 0.0 0.0 0.00 0.00 0.00 75 1008.2
20260508091218 95 0.0 0.0 0.00 0.00 0.00 75 1008.2
20260508090717 95 0.0 0.0 0.00 0.00 0.00 74 1008.2
20260508090214 95 0.0 0.0 0.00 0.00 0.00 74 1008.6
20260508085709 95 0.0 0.0 0.00 0.00 0.00 73 1008.2
20260508085207 95 0.0 0.0 0.00 0.00 0.00 72 1008.2
20260508084703 95 0.0 0.0 0.00 0.00 0.00 71 1008.2
20260508084201 96 0.0 0.0 0.00 0.00 0.00 71 1008.2
20260508083658 96 0.0 0.0 0.00 0.00 0.00 70 1008.2
20260508083155 96 0.0 0.0 0.00 0.00 0.00 70 1008.2
20260508082650 96 0.0 0.0 0.00 0.00 0.00 70 1007.9
20260508082147 96 0.0 0.0 0.00 0.00 0.00 69 1007.9
20260508081645 96 0.0 0.0 0.00 0.00 0.00 70 1007.9
20260508081141 96 0.0 0.0 0.00 0.00 0.00 70 1007.9
20260508080639 96 0.0 0.0 0.00 0.00 0.00 69 1007.9
20260508080137 96 0.0 0.0 0.00 0.00 0.00 69 1007.9
20260508075633 96 0.0 0.0 0.00 0.00 0.00 69 1007.9